Weather WX

World > North America > United States > Mississippi

Furrs, Mississippi Regional Weather

Lat: 34.23N, Lon: 88.87W
Wx Zone: MSZ015
Warning FLW WEATHER ALERT - (More Info. Click Here) Warning
Feedback

Furrs, MS Regional Weather

Expires:201906180300;;657601
ASUS44 KJAN 180210
RWRMS 

MISSISSIPPI HOURLY WEATHER ROUNDUP
NATIONAL WEATHER SERVICE JACKSON MS
900 PM CDT MON JUN 17 2019

NOTE: "FAIR: INDICATES FEW OR NO CLOUDS BELOW 12,000 FEET WITH NO
SIGNIFICANT WEATHER AND/OR OBSTRUCTIONS TO VISIBILITY.


MSZ003>006-009-014>017-022>024-029>033-037>039-180300-
NORTHEAST MISSISSIPPI
  
CITY           SKY/WX    TMP DP  RH WIND       PRES   REMARKS
ABERDEEN       CLOUDY    70  70 100 CALM      29.96F                  
COLUMBUS AFB   NOT AVBL                                               
CORINTH        DRIZZLE   73  72  94 E6        29.96F                  
STARKVILLE     FAIR      70  68  94 CALM      29.97S                  
TUPELO         FAIR      74  71  91 E3        29.95F                  
$$


SKY/WX - Weather  TMP - Temperature  DP - Dew Point  RH - Relative Humidity
WIND - Wind Direction/Speed PRES - Barometric Pressure VSB - Visibility
WCI - Wind Chill Index E13G22 Wind - East Wind 13 mph/Gusts of 22 mph